QFA55 PANC-PAFA

Flight info

Callsign QFA55
Flight time 0h 44m
Altitude 29000
Route KNIK3 BGQ CAWIN LIBER5
Aircraft B738/M-SDE2E3FGHIRWXY/LB1

Departure

Time 2026-04-15 10:48
Airport Ted Stevens Anchorage International Airport (PANC)

Arrival

Time 2026-04-15 11:32
Airport Fairbanks International Airport (PAFA)
Time Latitude Longitude Altitude Speed Heading
2026-04-15 10:19 61.17608 -149.98478 161 ft 0 kts 120°
2026-04-15 10:36 61.17612 -149.98493 160 ft 3 kts 125°
2026-04-15 10:36 61.17622 -149.98512 160 ft 2 kts 67°
2026-04-15 10:37 61.17614 -149.98561 160 ft 3 kts 77°
2026-04-15 10:37 61.17609 -149.98610 160 ft 3 kts 77°
2026-04-15 10:37 61.17603 -149.98658 160 ft 3 kts 86°
2026-04-15 10:37 61.17612 -149.98695 160 ft 3 kts 152°
2026-04-15 10:38 61.17634 -149.98712 160 ft 3 kts 160°
2026-04-15 10:38 61.17657 -149.98729 160 ft 3 kts 160°
2026-04-15 10:38 61.17669 -149.98738 160 ft 0 kts 160°
2026-04-15 10:39 61.17668 -149.98738 160 ft 1 kts 160°
2026-04-15 10:40 61.17653 -149.98726 160 ft 4 kts 160°
2026-04-15 10:40 61.17588 -149.98677 160 ft 17 kts 160°
2026-04-15 10:40 61.17475 -149.98593 160 ft 17 kts 161°
2026-04-15 10:40 61.17372 -149.98626 160 ft 13 kts 209°
2026-04-15 10:41 61.17300 -149.98722 161 ft 13 kts 214°
2026-04-15 10:41 61.17231 -149.98825 161 ft 10 kts 222°
2026-04-15 10:41 61.17169 -149.98964 161 ft 16 kts 230°
2026-04-15 10:41 61.17126 -149.99203 161 ft 20 kts 267°
2026-04-15 10:42 61.17125 -149.99521 161 ft 24 kts 270°
2026-04-15 10:42 61.17126 -149.99877 161 ft 25 kts 270°
2026-04-15 10:42 61.17123 -150.00237 161 ft 25 kts 270°
2026-04-15 10:42 61.17123 -150.00597 161 ft 25 kts 270°
2026-04-15 10:43 61.17122 -150.00957 161 ft 25 kts 269°
2026-04-15 10:43 61.17120 -150.01322 161 ft 25 kts 270°
2026-04-15 10:43 61.17122 -150.01683 161 ft 25 kts 271°
2026-04-15 10:43 61.17123 -150.02043 161 ft 25 kts 270°
2026-04-15 10:44 61.17123 -150.02403 162 ft 25 kts 270°
2026-04-15 10:44 61.17120 -150.02763 162 ft 25 kts 270°
2026-04-15 10:44 61.17120 -150.03121 162 ft 23 kts 269°
2026-04-15 10:44 61.17055 -150.03393 162 ft 22 kts 221°
2026-04-15 10:45 61.16927 -150.03502 162 ft 19 kts 181°
2026-04-15 10:45 61.16844 -150.03466 162 ft 0 kts 150°
2026-04-15 10:45 61.16837 -150.03457 162 ft 7 kts 145°
2026-04-15 10:45 61.16788 -150.03221 162 ft 29 kts 93°
2026-04-15 10:46 61.16786 -150.02708 162 ft 42 kts 90°
2026-04-15 10:46 61.16781 -150.02032 162 ft 50 kts 90°
2026-04-15 10:46 61.16781 -150.01375 161 ft 41 kts 91°
2026-04-15 10:46 61.16789 -150.00945 161 ft 19 kts 77°
2026-04-15 10:47 61.16872 -150.00815 161 ft 16 kts
2026-04-15 10:47 61.16963 -150.00775 161 ft 12 kts 61°
2026-04-15 10:47 61.16976 -150.00388 161 ft 51 kts 90°
2026-04-15 10:47 61.16975 -149.99226 161 ft 109 kts 90°
2026-04-15 10:48 61.16976 -149.97292 162 ft 158 kts 90°
2026-04-15 10:48 61.16981 -149.94876 519 ft 169 kts 89°
2026-04-15 10:48 61.17076 -149.92434 1137 ft 175 kts 82°
2026-04-15 10:48 61.17259 -149.89929 1789 ft 174 kts 81°
2026-04-15 10:49 61.17451 -149.87364 2248 ft 193 kts 73°
2026-04-15 10:49 61.18238 -149.85070 2770 ft 200 kts 34°
2026-04-15 10:49 61.19585 -149.84152 3214 ft 219 kts
2026-04-15 10:49 61.21185 -149.84462 3497 ft 244 kts 351°
2026-04-15 10:50 61.22946 -149.85110 3892 ft 262 kts 349°
2026-04-15 10:50 61.24739 -149.85824 4895 ft 259 kts 348°
2026-04-15 10:50 61.26526 -149.86541 5658 ft 264 kts 350°
2026-04-15 10:50 61.28360 -149.87148 6416 ft 269 kts 351°
2026-04-15 10:51 61.30221 -149.87720 7172 ft 272 kts 351°
2026-04-15 10:51 61.32106 -149.88318 7924 ft 276 kts 351°
2026-04-15 10:51 61.34011 -149.88950 8663 ft 279 kts 350°
2026-04-15 10:51 61.35937 -149.89605 9390 ft 282 kts 350°
2026-04-15 10:52 61.37883 -149.90267 10115 ft 285 kts 349°
2026-04-15 10:52 61.39904 -149.90953 10453 ft 303 kts 348°
2026-04-15 10:52 61.42043 -149.91677 10757 ft 320 kts 348°
2026-04-15 10:52 61.44292 -149.92437 11136 ft 333 kts 348°
2026-04-15 10:53 61.46598 -149.93212 11762 ft 338 kts 347°
2026-04-15 10:53 61.48935 -149.93998 12464 ft 342 kts 347°
2026-04-15 10:53 61.51290 -149.94793 13220 ft 343 kts 347°
2026-04-15 10:53 61.53650 -149.95595 13980 ft 345 kts 346°
2026-04-15 10:54 61.56038 -149.96186 14803 ft 348 kts 353°
2026-04-15 10:54 61.58463 -149.95823 15618 ft 353 kts
2026-04-15 10:54 61.60882 -149.94637 16280 ft 360 kts
2026-04-15 10:54 61.63323 -149.93324 16962 ft 364 kts
2026-04-15 10:55 61.65779 -149.91962 17655 ft 366 kts
2026-04-15 10:55 61.68257 -149.90589 18345 ft 369 kts
2026-04-15 10:55 61.70753 -149.89227 18988 ft 373 kts
2026-04-15 10:55 61.73275 -149.87864 19617 ft 376 kts
2026-04-15 10:56 61.75820 -149.86487 20235 ft 379 kts
2026-04-15 10:56 61.78388 -149.85088 20814 ft 383 kts
2026-04-15 10:56 61.80981 -149.83665 21395 ft 387 kts
2026-04-15 10:56 61.83608 -149.82224 21818 ft 394 kts
2026-04-15 10:57 61.86274 -149.80760 22356 ft 396 kts
2026-04-15 10:57 61.91681 -149.77773 23476 ft 399 kts
2026-04-15 10:57 61.94349 -149.76288 24170 ft 396 kts
2026-04-15 10:58 61.97012 -149.74810 24790 ft 393 kts
2026-04-15 10:58 61.99688 -149.73337 24972 ft 402 kts
2026-04-15 10:58 62.02428 -149.71843 24949 ft 411 kts
2026-04-15 10:58 62.05226 -149.70301 24950 ft 420 kts
2026-04-15 10:59 62.08082 -149.68703 24940 ft 428 kts
2026-04-15 10:59 62.10990 -149.67065 24941 ft 436 kts
2026-04-15 10:59 62.13943 -149.65400 24938 ft 442 kts
2026-04-15 10:59 62.16940 -149.63717 24933 ft 448 kts
2026-04-15 11:00 62.19970 -149.62017 24936 ft 453 kts
2026-04-15 11:00 62.23038 -149.60291 24942 ft 458 kts
2026-04-15 11:00 62.26095 -149.58552 24942 ft 446 kts
2026-04-15 11:00 62.29027 -149.56677 24682 ft 432 kts
2026-04-15 11:01 62.31818 -149.54973 24851 ft 405 kts
2026-04-15 11:01 62.34529 -149.53590 24877 ft 397 kts
2026-04-15 11:01 62.37205 -149.52271 24904 ft 394 kts
2026-04-15 11:01 62.39857 -149.50844 24920 ft 392 kts
2026-04-15 11:02 62.42487 -149.49304 24924 ft 392 kts
2026-04-15 11:02 62.45112 -149.47732 24929 ft 391 kts
2026-04-15 11:02 62.47732 -149.46195 24931 ft 390 kts
2026-04-15 11:02 62.50352 -149.44702 24931 ft 389 kts
2026-04-15 11:03 62.52970 -149.43223 24931 ft 389 kts
2026-04-15 11:03 62.55593 -149.41727 24932 ft 389 kts
2026-04-15 11:03 62.58208 -149.40216 24932 ft 390 kts
2026-04-15 11:03 62.60827 -149.38692 24933 ft 390 kts
2026-04-15 11:04 62.63445 -149.37169 24933 ft 390 kts
2026-04-15 11:04 62.66068 -149.35647 24933 ft 390 kts
2026-04-15 11:04 62.68688 -149.34127 24933 ft 390 kts
2026-04-15 11:04 62.71343 -149.32584 24928 ft 390 kts
2026-04-15 11:05 62.73962 -149.31055 24936 ft 390 kts
2026-04-15 11:05 62.76585 -149.29520 24938 ft 390 kts
2026-04-15 11:05 62.79207 -149.27983 24939 ft 390 kts
2026-04-15 11:05 62.81829 -149.26445 24939 ft 390 kts
2026-04-15 11:06 62.84451 -149.24903 24939 ft 390 kts
2026-04-15 11:06 62.87073 -149.23360 24939 ft 390 kts
2026-04-15 11:06 62.89692 -149.21815 24938 ft 390 kts
2026-04-15 11:06 62.92316 -149.20263 24938 ft 390 kts
2026-04-15 11:07 62.94940 -149.18709 24939 ft 390 kts
2026-04-15 11:07 62.97562 -149.17153 24939 ft 390 kts
2026-04-15 11:07 63.00184 -149.15595 24936 ft 390 kts
2026-04-15 11:07 63.02804 -149.14034 24938 ft 391 kts
2026-04-15 11:08 63.05429 -149.12468 24938 ft 391 kts
2026-04-15 11:08 63.08051 -149.10901 24939 ft 391 kts
2026-04-15 11:08 63.10675 -149.09329 24939 ft 391 kts
2026-04-15 11:08 63.13300 -149.07754 24939 ft 391 kts
2026-04-15 11:09 63.15924 -149.06177 24929 ft 391 kts
2026-04-15 11:09 63.18546 -149.04597 24925 ft 391 kts
2026-04-15 11:09 63.21170 -149.03014 24923 ft 392 kts
2026-04-15 11:09 63.23806 -149.01421 24571 ft 392 kts
2026-04-15 11:10 63.26426 -148.99829 24096 ft 389 kts
2026-04-15 11:10 63.29019 -148.98250 23644 ft 385 kts
2026-04-15 11:10 63.31587 -148.96686 23203 ft 380 kts
2026-04-15 11:10 63.34124 -148.95142 22770 ft 376 kts
2026-04-15 11:11 63.36635 -148.93611 22342 ft 372 kts
2026-04-15 11:11 63.39119 -148.92092 21918 ft 368 kts
2026-04-15 11:11 63.41577 -148.90587 21499 ft 364 kts
2026-04-15 11:11 63.44010 -148.89093 21085 ft 360 kts
2026-04-15 11:12 63.46414 -148.87614 20676 ft 356 kts
2026-04-15 11:12 63.48793 -148.86149 20264 ft 352 kts
2026-04-15 11:12 63.51171 -148.84681 19863 ft 348 kts
2026-04-15 11:12 63.52710 -148.83730 19601 ft 345 kts
2026-04-15 11:13 63.55009 -148.82308 19210 ft 341 kts
2026-04-15 11:13 63.57280 -148.80901 18824 ft 336 kts
2026-04-15 11:13 63.59520 -148.79510 18441 ft 332 kts
2026-04-15 11:13 63.61728 -148.78137 18065 ft 327 kts
2026-04-15 11:14 63.63907 -148.76780 17695 ft 324 kts
2026-04-15 11:14 63.66122 -148.75411 17333 ft 334 kts
2026-04-15 11:14 63.68359 -148.74019 16971 ft 333 kts 10°
2026-04-15 11:14 63.70586 -148.72619 16599 ft 332 kts 10°
2026-04-15 11:15 63.72793 -148.71227 16224 ft 326 kts 10°
2026-04-15 11:15 63.74959 -148.69861 15855 ft 321 kts 11°
2026-04-15 11:15 63.77088 -148.68522 15494 ft 317 kts 11°
2026-04-15 11:15 63.79234 -148.67181 15131 ft 323 kts 11°
2026-04-15 11:16 63.81404 -148.65820 14763 ft 324 kts 11°
2026-04-15 11:16 63.83580 -148.64443 14395 ft 324 kts 11°
2026-04-15 11:16 63.85730 -148.63076 14017 ft 317 kts 12°
2026-04-15 11:16 63.87833 -148.61736 13661 ft 311 kts 12°
2026-04-15 11:17 63.89936 -148.60401 13308 ft 310 kts 12°
2026-04-15 11:17 63.92019 -148.59084 12950 ft 313 kts 13°
2026-04-15 11:17 63.94127 -148.57747 12588 ft 315 kts 13°
2026-04-15 11:17 63.96244 -148.56396 12229 ft 316 kts 13°
2026-04-15 11:18 63.98342 -148.55051 11874 ft 310 kts 13°
2026-04-15 11:18 64.00394 -148.53732 11518 ft 303 kts 14°
2026-04-15 11:18 64.02400 -148.52445 11190 ft 297 kts 14°
2026-04-15 11:18 64.04400 -148.51166 10844 ft 300 kts 14°
2026-04-15 11:19 64.06419 -148.49872 10500 ft 302 kts 15°
2026-04-15 11:19 64.08433 -148.48574 10175 ft 297 kts 15°
2026-04-15 11:19 64.10373 -148.47317 10068 ft 282 kts 15°
2026-04-15 11:19 64.12234 -148.46109 9945 ft 275 kts 15°
2026-04-15 11:20 64.14090 -148.44905 9585 ft 277 kts 15°
2026-04-15 11:20 64.15928 -148.43713 9235 ft 273 kts 16°
2026-04-15 11:20 64.17738 -148.42537 8893 ft 268 kts 16°
2026-04-15 11:20 64.19520 -148.41379 8561 ft 264 kts 16°
2026-04-15 11:21 64.21277 -148.40234 8233 ft 262 kts 17°
2026-04-15 11:21 64.23025 -148.39094 7902 ft 260 kts 17°
2026-04-15 11:21 64.24760 -148.37962 7584 ft 258 kts 17°
2026-04-15 11:21 64.26478 -148.36836 7271 ft 256 kts 17°
2026-04-15 11:22 64.28190 -148.35713 6944 ft 255 kts 16°
2026-04-15 11:22 64.29889 -148.34596 6628 ft 254 kts 16°
2026-04-15 11:22 64.31583 -148.33482 6312 ft 252 kts 16°
2026-04-15 11:22 64.33264 -148.32377 5999 ft 251 kts 16°
2026-04-15 11:23 64.34937 -148.31276 5687 ft 250 kts 16°
2026-04-15 11:23 64.36621 -148.30172 5436 ft 244 kts 16°
2026-04-15 11:23 64.38215 -148.29133 5209 ft 236 kts 16°
2026-04-15 11:23 64.39840 -148.28072 4977 ft 245 kts 16°
2026-04-15 11:24 64.41529 -148.26968 4983 ft 253 kts 16°
2026-04-15 11:24 64.43206 -148.25876 4985 ft 249 kts 14°
2026-04-15 11:24 64.44936 -148.25392 4900 ft 253 kts
2026-04-15 11:24 64.46697 -148.25186 4748 ft 254 kts
2026-04-15 11:25 64.48453 -148.25080 4592 ft 250 kts
2026-04-15 11:25 64.50186 -148.24987 4441 ft 248 kts
2026-04-15 11:25 64.51907 -148.24871 4293 ft 247 kts
2026-04-15 11:25 64.53619 -148.24737 4146 ft 246 kts
2026-04-15 11:26 64.55327 -148.24597 3997 ft 245 kts
2026-04-15 11:26 64.57032 -148.24459 3849 ft 245 kts
2026-04-15 11:26 64.58730 -148.24324 3702 ft 244 kts
2026-04-15 11:26 64.60406 -148.23883 3563 ft 242 kts 19°
2026-04-15 11:27 64.61868 -148.22044 3449 ft 240 kts 36°
2026-04-15 11:27 64.63199 -148.19687 3280 ft 238 kts 39°
2026-04-15 11:27 64.64472 -148.17357 3129 ft 227 kts 39°
2026-04-15 11:27 64.65688 -148.15151 2993 ft 216 kts 39°
2026-04-15 11:28 64.66842 -148.13062 2862 ft 204 kts 39°
2026-04-15 11:28 64.67952 -148.11049 2744 ft 202 kts 39°
2026-04-15 11:28 64.69056 -148.09046 2669 ft 199 kts 38°
2026-04-15 11:28 64.70125 -148.07105 2638 ft 186 kts 39°
2026-04-15 11:29 64.71102 -148.05330 2619 ft 175 kts 39°
2026-04-15 11:29 64.72064 -148.03579 2517 ft 176 kts 39°
2026-04-15 11:29 64.73018 -148.01841 2286 ft 171 kts 39°
2026-04-15 11:29 64.73944 -148.00153 2065 ft 165 kts 39°
2026-04-15 11:30 64.74828 -147.98541 1846 ft 157 kts 38°
2026-04-15 11:30 64.75682 -147.96981 1638 ft 155 kts 38°
2026-04-15 11:30 64.76528 -147.95435 1433 ft 153 kts 38°
2026-04-15 11:30 64.77368 -147.93901 1216 ft 154 kts 38°
2026-04-15 11:31 64.78218 -147.92356 1032 ft 156 kts 38°
2026-04-15 11:31 64.79057 -147.90787 829 ft 153 kts 38°
2026-04-15 11:31 64.79900 -147.89239 598 ft 151 kts 38°
2026-04-15 11:31 64.80715 -147.87761 445 ft 140 kts 38°
2026-04-15 11:32 64.81331 -147.86624 443 ft 84 kts 38°
2026-04-15 11:32 64.81686 -147.85971 443 ft 51 kts 39°
2026-04-15 11:32 64.81844 -147.85674 443 ft 17 kts 38°
2026-04-15 11:32 64.81931 -147.85641 442 ft 11 kts 320°
2026-04-15 11:33 64.81954 -147.85789 443 ft 10 kts 244°
2026-04-15 11:33 64.81893 -147.85913 443 ft 14 kts 218°
2026-04-15 11:33 64.81807 -147.86073 443 ft 18 kts 218°
2026-04-15 11:33 64.81699 -147.86273 443 ft 22 kts 218°
2026-04-15 11:34 64.81573 -147.86508 443 ft 24 kts 218°
2026-04-15 11:34 64.81503 -147.86656 443 ft 10 kts 249°
2026-04-15 11:34 64.81532 -147.86822 443 ft 13 kts 314°
2026-04-15 11:34 64.81596 -147.86877 443 ft 8 kts
2026-04-15 11:35 64.81644 -147.86851 442 ft 3 kts 15°
2026-04-15 11:35 64.81645 -147.86850 443 ft 0 kts 14°